RACE ROCKS, current weather conditions

sailwx.info

Wind from 280 at 22 knots

Air temperature 11.6° C
Dewpoint 9.3° C

Last reported at 2019-Nov-15 22:00 UTC.
Time now 2019-Nov-15 23:20 UTC

Location: N 48°18' W 123°32'.
View on Google Maps.

See reports from other nearby stations

  
Tides and Currents Weather Stations Pressure Air Temp Water Temp Dewpoint Dewpoint Depression Visibility Wind Speed Wind Dir Waves Ship Positions
date/time (UTC)wind fromknots sea level pressurealtimeterstation pressurevisibilityair tempwater tempwave heightnotes
2019-Nov-15 22:00 280 22 11.6
2019-Nov-15 21:00 280 18 10.9
2019-Nov-15 20:00 270 12 10.2
2019-Nov-15 19:00 240 5 10.3
2019-Nov-15 18:00 230 1 9.2
2019-Nov-15 17:00 010 2 8.9
2019-Nov-15 16:00 090 6 8.8
2019-Nov-15 15:00 010 7 8.5
2019-Nov-15 14:00 080 7 8.4
2019-Nov-15 13:00 040 6 8.4
2019-Nov-15 12:00 360 8 8.4
2019-Nov-15 11:00 010 8 8.4
2019-Nov-15 10:00 080 12 8.8
2019-Nov-15 09:00 070 4 8.6
2019-Nov-15 08:00 140 6 8.5
2019-Nov-15 07:00 250 1 7.5
2019-Nov-15 06:00 280 5 8.3
2019-Nov-15 05:00 230 2 8.2
2019-Nov-15 04:00 320 2 8.2
2019-Nov-15 03:00 010 1 8.4
2019-Nov-15 02:00 070 2 8.5
2019-Nov-15 01:00 140 2 8.6
2019-Nov-15 00:00 120 8 8.6
2019-Nov-14 23:00 110 6 8.9
2019-Nov-14 22:00 100 6 9.2
2019-Nov-14 21:00 090 6 9.0
2019-Nov-14 20:00 070 7 8.7
2019-Nov-14 19:00 070 11 8.6
2019-Nov-14 18:00 070 12 8.7
2019-Nov-14 17:00 070 12 8.6
2019-Nov-14 16:00 080 7 8.7
2019-Nov-14 13:00 070 9 9.0
2019-Nov-14 12:00 060 13 9.1
2019-Nov-14 11:00 050 17 9.2
2019-Nov-14 10:00 050 13 9.1
2019-Nov-14 09:00 040 15 9.3
2019-Nov-14 08:00 050 13 gusting 19 9.6
2019-Nov-14 07:00 080 11 9.0
2019-Nov-14 06:00 090 9 8.9
2019-Nov-14 05:00 090 11 9.0
2019-Nov-14 04:00 080 13 9.3
2019-Nov-14 03:00 100 11 9.3
2019-Nov-14 02:00 080 13 9.9
2019-Nov-14 01:00 080 13 9.9
2019-Nov-14 00:00 050 12 10.2
2019-Nov-13 23:00 030 8 10.5